Location: Albany
(35.0170°S, 117.8920°E)
Time: 21:46:42
(UTC+08:00)

A-11 Canister half - Pass Details

Date: 29 January 2021
Orbit: 1525 x 1684 km, 47.3° (Epoch: 03 March)

Event Time Altitude Azimuth Distance (km) Brightness Sun altitude
Rises 10:19:26 0° 249° (WSW) 4,816 11.3 58.0°
Reaches altitude 10° 10:24:09 10° 268° (W) 3,792 10.9 58.8°
Maximum altitude 10:29:25 16° 302° (WNW) 3,276 10.8 59.8°
Drops below altitude 10° 10:34:37 10° 337° (NNW) 3,714 11.2 60.7°
Sets 10:39:12 0° 357° (N) 4,670 11.7 61.6°
